Location: ?kun?ru
(16.3916°N, 80.8194°E)
Time: 14:16:47
(UTC+00:00)

In-Cosmos 22 Rocket - Pass Details

Date: 19 May 2025
Orbit: 790 x 885 km, 81.2° (Epoch: 17 June)

Event Time Altitude Azimuth Distance (km) Brightness Sun altitude
Exits shadow 22:55:07 - 185° (S) 2,816 6.6 -16.1°
Reaches altitude 10° 22:56:19 10° 185° (S) 2,346 6.2 -15.9°
Maximum altitude 23:01:36 89° 281° (W) 793 4.0 -14.8°
Drops below altitude 10° 23:06:56 10° 6° (N) 2,363 7.0 -13.6°
Sets 23:09:19 0° 6° (N) 3,302 7.8 -13.1°
